User: anonymous   Login
Location: Byszew
(52.1813°N, 19.2693°E)
Time: 18:04:18
(UTC+00:00)
Language:

Cosmos 1844 - Orbit

View from above orbital plane
View from above orbital plane
View from above satellite
View from above satellite

Ground track
Ground track

The orbit data is extracted from the following two-line orbital elements,

1 17973U 87041A   21207.48014648 -.00000288  00000-0 -12526-3 0  9993
2 17973  70.8989 351.4714 0029927  30.5422 329.7434 14.14126177765239
Epoch (UTC): 26 July 2021 11:31:24
Eccentricity: 0.0029927
inclination: 70.8989°
perigee height: 823 km
apogee height: 867 km
right ascension of ascending node: 351.4714°
argument of perigee: 30.5422°
revolutions per day: 14.14126177
mean anomaly at epoch: 329.7434°
orbit number at epoch: 76523

The dashed part of the orbit path shows where the satellite is in the earth's shadow,  

DLR